CW3375 Ferndale WA US current weather conditions

sailwx.info

Wind from 181 at 2 knots gusting 5

Air temperature 15.6° C
Dewpoint 10.7° C

Last reported at 2020-Aug-10 15:03 UTC.
Time now 2020-Aug-10 16:03 UTC

Location: N 48°52' W 122°36'.
View on Google Maps.

See reports from other nearby stations

  
Tides and Currents Weather Stations Pressure Air Temp Water Temp Dewpoint Dewpoint Depression Visibility Wind Speed Wind Dir Waves Ship Positions
date/time (UTC)wind fromknots sea level pressurealtimeterstation pressurevisibilityair tempwater tempwave heightnotes
2020-Aug-10 15:03 181 2 gusting 5 15.6
2020-Aug-10 14:56 189 1 gusting 4 15.6
2020-Aug-10 14:49 145 2 gusting 5 15.0
2020-Aug-10 14:42 067 15.0
2020-Aug-10 14:35 083 0 gusting 2 14.4
2020-Aug-10 14:28 104 0 gusting 6 13.9
2020-Aug-10 14:21 163 2 gusting 6 13.9
2020-Aug-10 14:14 122 0 gusting 2 13.3
2020-Aug-10 14:07 13.3
2020-Aug-10 14:00 13.3
2020-Aug-10 13:53 082 13.9
2020-Aug-10 13:46 265 0 gusting 3 13.3
2020-Aug-10 13:39 258 1 gusting 3 13.3
2020-Aug-10 13:32 271 0 gusting 2 13.3
2020-Aug-10 13:25 245 0 gusting 2 13.3
2020-Aug-10 13:18 250 0 gusting 2 13.3
2020-Aug-10 13:11 233 0 gusting 2 13.3
2020-Aug-10 13:04 220 0 gusting 2 13.3
2020-Aug-10 12:57 214 0 gusting 2 13.3
2020-Aug-10 12:50 202 0 gusting 2 13.3
2020-Aug-10 12:43 219 0 gusting 2 13.3
2020-Aug-10 12:36 251 1 gusting 2 13.3
2020-Aug-10 12:29 248 0 gusting 3 13.3
2020-Aug-10 12:22 239 0 gusting 3 13.3
2020-Aug-10 12:15 224 1 gusting 2 13.3
2020-Aug-10 12:08 237 1 gusting 5 13.3
2020-Aug-10 12:01 247 2 gusting 5 13.3
2020-Aug-10 11:54 224 1 gusting 5 13.9
2020-Aug-10 11:47 217 1 gusting 5 13.9
2020-Aug-10 11:40 220 0 gusting 4 13.9
2020-Aug-10 11:33 214 1 gusting 3 13.9
2020-Aug-10 11:26 229 1 gusting 6 13.9
2020-Aug-10 11:19 235 2 gusting 6 13.9
2020-Aug-10 11:12 240 1 gusting 3 13.9
2020-Aug-10 11:05 235 1 gusting 3 13.3
2020-Aug-10 10:58 238 0 gusting 4 13.9
2020-Aug-10 10:51 221 1 gusting 2 13.9
2020-Aug-10 10:44 241 1 gusting 2 13.9
2020-Aug-10 10:37 13.9
2020-Aug-10 10:30 13.9
2020-Aug-10 10:23 258 0 gusting 1 13.9
2020-Aug-10 10:16 237 0 gusting 1 13.3
2020-Aug-10 10:09 229 13.3
2020-Aug-10 10:02 12.8
2020-Aug-10 09:55 12.8
2020-Aug-10 09:48 12.8
2020-Aug-10 09:41 13.3
2020-Aug-10 09:34 13.3
2020-Aug-10 09:27 13.3
2020-Aug-10 09:20 13.9
2020-Aug-10 09:13 13.9
2020-Aug-10 09:06 13.9
2020-Aug-10 08:59 14.4
2020-Aug-10 08:52 14.4
2020-Aug-10 08:45 240 15.0
2020-Aug-10 08:38 15.0
2020-Aug-10 08:31 15.0
2020-Aug-10 08:24 251 15.0
2020-Aug-10 08:17 15.0
2020-Aug-10 08:10 222 0 gusting 2 15.0
2020-Aug-10 08:03 228 0 gusting 1 15.0
2020-Aug-10 07:56 250 0 gusting 1 15.0
2020-Aug-10 07:49 241 0 gusting 1 15.0
2020-Aug-10 07:42 232 0 gusting 1 15.6
2020-Aug-10 07:35 211 0 gusting 3 15.6
2020-Aug-10 07:28 210 1 gusting 3 15.6
2020-Aug-10 07:21 15.6
2020-Aug-10 07:14 221 0 gusting 2 15.6
2020-Aug-10 07:07 226 0 gusting 1 15.6
2020-Aug-10 07:00 225 0 gusting 1 15.6
2020-Aug-10 06:53 16.1
2020-Aug-10 06:46 225 0 gusting 1 16.1
2020-Aug-10 06:39 207 1 gusting 2 16.1
2020-Aug-10 06:32 222 0 gusting 2 16.1
2020-Aug-10 06:25 204 0 gusting 1 16.1
2020-Aug-10 06:18 224 16.1
2020-Aug-10 06:11 207 1 gusting 2 16.7
2020-Aug-10 06:04 16.7
2020-Aug-10 05:57 221 0 gusting 1 16.1
2020-Aug-10 05:50 283 16.7
2020-Aug-10 05:43 16.7
2020-Aug-10 05:36 254 0 gusting 4 16.1
2020-Aug-10 05:29 262 1 gusting 2 16.1
2020-Aug-10 05:22 240 0 gusting 1 16.7
2020-Aug-10 05:15 16.7
2020-Aug-10 05:08 215 1 gusting 2 16.7
2020-Aug-10 05:01 244 0 gusting 1 16.7
2020-Aug-10 04:54 249 0 gusting 1 16.7
2020-Aug-10 04:47 300 16.7
2020-Aug-10 04:40 265 1 gusting 2 16.7
2020-Aug-10 04:33 16.7
2020-Aug-10 04:26 16.7
2020-Aug-10 04:19 17.2
2020-Aug-10 04:12 17.2
2020-Aug-10 04:05 17.8
2020-Aug-10 03:58 270 17.8
2020-Aug-10 03:51 248 0 gusting 1 17.8
2020-Aug-10 03:44 270 0 gusting 1 18.3
2020-Aug-10 03:37 215 0 gusting 2 18.9
2020-Aug-10 03:30 226 18.9
2020-Aug-10 03:23 151 0 gusting 1 19.4
2020-Aug-10 03:16 220 19.4
2020-Aug-10 03:09 206 0 gusting 3 20.0
2020-Aug-10 03:02 20.0
2020-Aug-10 02:55 238 1 gusting 3 20.0
2020-Aug-10 02:48 234 0 gusting 4 20.6
2020-Aug-10 02:41 252 1 gusting 3 20.6
2020-Aug-10 02:34 220 2 gusting 6 20.6
2020-Aug-10 02:27 282 0 gusting 6 20.6
2020-Aug-10 02:20 247 0 gusting 6 21.1
2020-Aug-10 02:13 270 1 gusting 6 21.1
2020-Aug-10 02:06 232 2 gusting 5 21.1
2020-Aug-10 01:59 253 1 gusting 6 21.1
2020-Aug-10 01:52 232 4 gusting 6 21.7
2020-Aug-10 01:45 241 4 gusting 6 22.2
2020-Aug-10 01:38 253 3 gusting 6 22.2
2020-Aug-10 01:31 220 2 gusting 6 22.2
2020-Aug-10 01:24 287 1 gusting 6 22.2
2020-Aug-10 01:17 260 1 gusting 3 22.8
2020-Aug-10 01:10 333 0 gusting 6 23.3
2020-Aug-10 01:03 216 2 gusting 6 23.9
2020-Aug-10 00:56 236 3 gusting 6 23.3
2020-Aug-10 00:49 246 2 gusting 9 23.3
2020-Aug-10 00:42 254 6 gusting 9 23.9
2020-Aug-10 00:35 215 5 gusting 9 23.9
2020-Aug-10 00:28 239 4 gusting 8 23.9
2020-Aug-10 00:21 217 5 gusting 9 23.9
2020-Aug-10 00:14 265 4 gusting 11 24.4
2020-Aug-10 00:07 229 5 gusting 11 25.0
2020-Aug-10 00:00 185 3 gusting 9 25.0
2020-Aug-09 23:53 270 1 gusting 8 25.0
2020-Aug-09 23:46 238 3 gusting 6 25.6
2020-Aug-09 23:39 237 2 gusting 9 25.6
2020-Aug-09 23:32 245 2 gusting 9 24.4
2020-Aug-09 23:25 225 2 gusting 5 23.3
2020-Aug-09 23:18 285 2 gusting 6 23.3
2020-Aug-09 23:11 326 2 gusting 9 24.4
2020-Aug-09 23:04 240 5 gusting 9 25.6
2020-Aug-09 22:57 201 4 gusting 9 25.0
2020-Aug-09 22:50 225 4 gusting 11 23.9
2020-Aug-09 22:43 259 6 gusting 11 24.4
2020-Aug-09 22:36 288 0 gusting 5 25.0
2020-Aug-09 22:29 246 2 gusting 6 25.6
2020-Aug-09 22:22 170 2 gusting 7 25.0
2020-Aug-09 22:15 257 3 gusting 8 24.4
2020-Aug-09 22:08 250 4 gusting 10 24.4
2020-Aug-09 22:01 199 5 gusting 10 24.4
2020-Aug-09 21:54 236 4 gusting 10 23.9
2020-Aug-09 21:47 219 3 gusting 10 22.8
2020-Aug-09 21:40 267 2 gusting 9 23.3
2020-Aug-09 21:33 274 3 gusting 10 23.3
2020-Aug-09 21:26 283 1 gusting 9 22.8
2020-Aug-09 21:19 237 5 gusting 11 22.8
2020-Aug-09 21:12 260 4 gusting 13 22.2
2020-Aug-09 21:05 248 3 gusting 17 22.2
2020-Aug-09 20:58 254 7 gusting 17 22.8
2020-Aug-09 20:51 246 4 gusting 13 22.2
2020-Aug-09 20:44 258 6 gusting 13 22.2
2020-Aug-09 20:37 255 5 gusting 12 22.8
2020-Aug-09 20:30 252 5 gusting 12 23.3
2020-Aug-09 20:23 213 6 gusting 12 23.3
2020-Aug-09 20:16 137 3 gusting 9 22.8
2020-Aug-09 20:09 244 4 gusting 9 22.8
2020-Aug-09 20:02 203 4 gusting 6 22.8
2020-Aug-09 19:55 241 3 gusting 8 22.8
2020-Aug-09 19:48 242 3 gusting 8 23.9
2020-Aug-09 19:41 211 4 gusting 7 23.3
2020-Aug-09 19:34 095 2 gusting 7 21.7
2020-Aug-09 19:27 135 1 gusting 6 20.6
2020-Aug-09 19:20 261 4 gusting 10 21.7
2020-Aug-09 19:13 267 4 gusting 10 22.8
2020-Aug-09 19:06 133 3 gusting 6 21.7
2020-Aug-09 18:59 186 3 gusting 6 19.4
2020-Aug-09 18:52 210 3 gusting 6 19.4
2020-Aug-09 18:45 247 4 gusting 6 19.4
2020-Aug-09 18:38 342 1 gusting 4 20.0
2020-Aug-09 18:31 260 1 gusting 4 21.1
2020-Aug-09 18:24 204 1 gusting 6 21.7
2020-Aug-09 18:17 148 3 gusting 7 22.2
2020-Aug-09 18:10 143 4 gusting 9 21.1
2020-Aug-09 18:03 120 4 gusting 8 21.1
2020-Aug-09 17:56 130 4 gusting 8 20.6
2020-Aug-09 17:49 122 2 gusting 6 19.4
2020-Aug-09 17:42 155 0 gusting 4 18.3
2020-Aug-09 17:35 158 0 gusting 3 17.8
2020-Aug-09 17:28 274 0 gusting 4 18.3
2020-Aug-09 17:21 155 1 gusting 5 18.3
2020-Aug-09 17:14 128 0 gusting 6 18.9
2020-Aug-09 17:07 148 3 gusting 6 18.9
2020-Aug-09 17:00 138 3 gusting 9 18.9
2020-Aug-09 16:53 123 6 gusting 9 18.3
2020-Aug-09 16:46 151 2 gusting 6 17.8
2020-Aug-09 16:39 175 2 gusting 5 16.7
2020-Aug-09 16:32 219 2 gusting 6 17.2
2020-Aug-09 16:25 116 3 gusting 6 16.7
2020-Aug-09 16:18 114 1 gusting 6 16.1
2020-Aug-09 16:11 125 2 gusting 6 16.1
2020-Aug-09 16:04 115 2 gusting 6 15.6
2020-Aug-09 15:57 123 2 gusting 7 15.6
2020-Aug-09 15:50 108 3 gusting 7 15.0
2020-Aug-09 15:43 142 2 gusting 5 15.0
2020-Aug-09 15:36 132 3 gusting 5 15.0
2020-Aug-09 15:29 101 1 gusting 7 14.4
2020-Aug-09 15:22 091 0 gusting 2 13.9
2020-Aug-09 15:15 102 0 gusting 4 13.9
2020-Aug-09 15:08 133 0 gusting 5 13.3
2020-Aug-09 15:01 071 0 gusting 4 13.3
2020-Aug-09 14:54 063 0 gusting 3 12.8
2020-Aug-09 14:47 360 12.8
2020-Aug-09 14:40 132 1 gusting 4 12.2
2020-Aug-09 14:33 089 0 gusting 3 11.7
2020-Aug-09 14:26 11.7
2020-Aug-09 14:19 11.1
2020-Aug-09 14:12 11.1
2020-Aug-09 14:05 358 10.6
2020-Aug-09 13:58 354 10.6
2020-Aug-09 13:51 027 10.6
2020-Aug-09 13:44 10.6
2020-Aug-09 13:37 006 10.6
2020-Aug-09 13:30 039 0 gusting 1 10.6
2020-Aug-09 13:23 052 11.7
2020-Aug-09 13:16 101 0 gusting 1 11.7
2020-Aug-09 13:09 205 0 gusting 2 11.7
2020-Aug-09 13:02 200 0 gusting 1 11.7
2020-Aug-09 12:55 224 0 gusting 3 11.7
2020-Aug-09 12:48 247 0 gusting 2 11.7
2020-Aug-09 12:41 274 11.7
2020-Aug-09 12:34 201 11.7
2020-Aug-09 12:27 11.7
2020-Aug-09 12:20 12.2
2020-Aug-09 12:13 143 12.2
2020-Aug-09 12:06 210 12.2
2020-Aug-09 11:59 12.2
2020-Aug-09 11:52 197 0 gusting 3 12.2
2020-Aug-09 11:45 229 0 gusting 2 12.2
2020-Aug-09 11:38 227 0 gusting 2 12.2
2020-Aug-09 11:31 238 0 gusting 1 12.2
2020-Aug-09 11:24 12.2
2020-Aug-09 11:17 11.7
2020-Aug-09 11:10 233 11.7
2020-Aug-09 11:03 189 11.7
2020-Aug-09 10:56 131 2 gusting 3 11.7
2020-Aug-09 10:49 105 12.2
2020-Aug-09 10:42 176 12.2
2020-Aug-09 10:35 090 12.2
2020-Aug-09 10:28 121 1 gusting 2 12.8
2020-Aug-09 10:21 129 12.8
2020-Aug-09 10:14 194 0 gusting 5 12.8
2020-Aug-09 10:07 206 1 gusting 6 12.8
2020-Aug-09 10:00 206 2 gusting 6 12.8
2020-Aug-09 09:53 221 1 gusting 4 12.8
2020-Aug-09 09:46 224 1 gusting 4 12.8
2020-Aug-09 09:39 199 2 gusting 3 12.8
2020-Aug-09 09:32 248 1 gusting 3 12.8
2020-Aug-09 09:25 226 1 gusting 3 12.8
2020-Aug-09 09:18 240 1 gusting 2 12.8
2020-Aug-09 09:11 237 0 gusting 3 13.3
2020-Aug-09 09:04 217 1 gusting 3 13.3
2020-Aug-09 08:57 206 2 gusting 5 13.3
2020-Aug-09 08:50 223 1 gusting 6 13.3
2020-Aug-09 08:43 238 1 gusting 4 13.3
2020-Aug-09 08:36 258 2 gusting 4 13.3
2020-Aug-09 08:29 252 1 gusting 4 13.3
2020-Aug-09 08:22 245 1 gusting 1 13.3
2020-Aug-09 08:15 231 1 gusting 2 13.3
2020-Aug-09 08:08 213 1 gusting 3 13.9
2020-Aug-09 08:01 187 0 gusting 4 13.9
2020-Aug-09 07:54 206 1 gusting 4 13.9
2020-Aug-09 07:47 212 1 gusting 1 13.9
2020-Aug-09 07:40 212 1 gusting 1 13.9
2020-Aug-09 07:33 197 0 gusting 1 13.9
2020-Aug-09 07:26 214 13.9
2020-Aug-09 07:19 217 0 gusting 2 13.9
2020-Aug-09 07:12 202 1 gusting 3 13.9
2020-Aug-09 07:05 226 1 gusting 2 13.9
2020-Aug-09 06:58 221 1 gusting 3 14.4
2020-Aug-09 06:51 197 1 gusting 5 14.4
2020-Aug-09 06:44 216 1 gusting 5 13.9
2020-Aug-09 06:37 232 1 gusting 4 13.9
2020-Aug-09 06:30 222 1 gusting 4 13.9
2020-Aug-09 06:23 225 0 gusting 2 13.9
2020-Aug-09 06:16 223 1 gusting 2 13.9
2020-Aug-09 06:09 223 0 gusting 2 14.4
2020-Aug-09 05:54 235 0 gusting 2 14.4
2020-Aug-09 05:47 200 0 gusting 2 14.4
2020-Aug-09 05:40 247 15.0
2020-Aug-09 05:33 183 0 gusting 1 15.0
2020-Aug-09 05:26 162 0 gusting 2 15.0
2020-Aug-09 05:19 199 1 gusting 2 15.0
2020-Aug-09 05:12 233 0 gusting 3 14.4
2020-Aug-09 05:05 257 1 gusting 2 15.0
2020-Aug-09 04:58 226 0 gusting 4 15.0
2020-Aug-09 04:51 135 1 gusting 6 15.6
2020-Aug-09 04:44 204 1 gusting 6 15.6
2020-Aug-09 04:37 248 2 gusting 6 15.6
2020-Aug-09 04:30 250 2 gusting 4 15.6
2020-Aug-09 04:23 237 1 gusting 3 15.6
2020-Aug-09 04:16 235 0 gusting 5 16.1
2020-Aug-09 04:09 233 1 gusting 4 16.1
2020-Aug-09 04:02 222 0 gusting 1 16.1
2020-Aug-09 03:55 220 0 gusting 1 16.7
2020-Aug-09 03:48 216 0 gusting 2 16.7
2020-Aug-09 03:41 221 0 gusting 3 16.7
2020-Aug-09 03:34 219 1 gusting 2 17.2
2020-Aug-09 03:27 194 1 gusting 2 17.2
2020-Aug-09 03:20 160 17.8
2020-Aug-09 03:13 205 17.8
2020-Aug-09 03:06 224 17.8
2020-Aug-09 02:59 186 0 gusting 4 18.3
2020-Aug-09 02:53 243 0 gusting 5 18.3
2020-Aug-09 02:45 222 1 gusting 9 18.3
2020-Aug-09 02:38 249 4 gusting 9 18.9
2020-Aug-09 02:31 289 0 gusting 6 18.9
2020-Aug-09 02:24 256 1 gusting 7 18.9
2020-Aug-09 02:17 276 1 gusting 7 18.9
2020-Aug-09 02:10 286 1 gusting 9 19.4
2020-Aug-09 02:03 247 3 gusting 9 19.4
2020-Aug-09 01:56 258 3 gusting 9 19.4
2020-Aug-09 01:49 265 3 gusting 7 20.0
2020-Aug-09 01:42 288 2 gusting 10 20.0
2020-Aug-09 01:35 261 4 gusting 9 20.6
2020-Aug-09 01:28 232 3 gusting 9 21.1
2020-Aug-09 01:21 236 6 gusting 10 21.1
2020-Aug-09 01:14 268 4 gusting 10 21.1
2020-Aug-09 01:07 238 1 gusting 9 22.2
2020-Aug-09 01:00 218 3 gusting 7 22.2
2020-Aug-09 00:53 246 2 gusting 9 22.2
2020-Aug-09 00:46 221 2 gusting 8 22.8
2020-Aug-09 00:39 224 2 gusting 6 22.2
2020-Aug-09 00:32 277 1 gusting 9 21.7
2020-Aug-09 00:25 254 4 gusting 9 21.7
2020-Aug-09 00:18 254 6 gusting 10 21.7
2020-Aug-09 00:11 235 5 gusting 10 21.7
2020-Aug-09 00:04 303 1 gusting 9 21.7
2020-Aug-08 23:57 334 2 gusting 10 21.7
2020-Aug-08 23:50 226 4 gusting 10 22.2
2020-Aug-08 23:43 244 3 gusting 11 21.7
2020-Aug-08 23:36 226 2 gusting 9 21.7
2020-Aug-08 23:29 288 3 gusting 10 21.7
2020-Aug-08 23:22 225 3 gusting 12 21.7
2020-Aug-08 23:15 248 5 gusting 13 22.2
2020-Aug-08 23:08 247 6 gusting 11 22.2
2020-Aug-08 23:01 233 6 gusting 9 22.8
2020-Aug-08 22:54 205 3 gusting 7 22.8
2020-Aug-08 22:47 253 4 gusting 9 22.8
2020-Aug-08 22:40 208 6 gusting 13 22.8
2020-Aug-08 22:33 222 4 gusting 11 22.8
2020-Aug-08 20:42 265 5 gusting 11 19.4
2020-Aug-08 20:35 251 4 gusting 9 18.9
2020-Aug-08 20:28 313 3 gusting 6 18.3
2020-Aug-08 20:21 295 2 gusting 6 17.8
2020-Aug-08 20:14 325 3 gusting 6 17.8
2020-Aug-08 20:07 338 4 gusting 9 18.3
2020-Aug-08 20:00 337 2 gusting 9 18.3
2020-Aug-08 19:53 255 5 gusting 10 18.9
2020-Aug-08 19:46 270 3 gusting 12 18.9
2020-Aug-08 19:39 274 4 gusting 12 18.3
2020-Aug-08 19:32 256 6 gusting 11 18.3
2020-Aug-08 19:25 250 5 gusting 7 18.9
2020-Aug-08 19:18 205 3 gusting 6 20.0
2020-Aug-08 19:11 159 4 gusting 7 20.6
2020-Aug-08 19:04 209 2 gusting 7 20.6
2020-Aug-08 18:57 206 3 gusting 9 20.0
2020-Aug-08 18:50 222 5 gusting 9 19.4
2020-Aug-08 18:43 249 1 gusting 6 18.9
2020-Aug-08 18:36 201 3 gusting 8 18.9
2020-Aug-08 18:29 230 2 gusting 6 17.8
2020-Aug-08 18:22 231 2 gusting 6 17.2
2020-Aug-08 18:15 216 1 gusting 6 16.7
2020-Aug-08 18:08 211 3 gusting 7 17.2
2020-Aug-08 18:01 256 4 gusting 7 17.8
2020-Aug-08 17:54 244 1 gusting 5 17.8
2020-Aug-08 17:47 176 1 gusting 5 17.2
2020-Aug-08 17:40 17.2
2020-Aug-08 17:33 211 2 gusting 4 17.2
2020-Aug-08 17:26 088 1 gusting 3 17.8
2020-Aug-08 17:19 281 1 gusting 6 17.8
2020-Aug-08 17:12 138 2 gusting 6 17.8
2020-Aug-08 17:05 127 2 gusting 6 17.2
2020-Aug-08 16:58 129 1 gusting 5 17.2
2020-Aug-08 16:51 202 2 gusting 5 17.2
2020-Aug-08 16:44 194 1 gusting 6 16.7
2020-Aug-08 16:37 149 1 gusting 6 16.1
2020-Aug-08 16:30 127 2 gusting 5 16.1
2020-Aug-08 16:23 124 3 gusting 6 16.1
2020-Aug-08 16:16 124 3 gusting 6 16.1
2020-Aug-08 16:09 163 2 gusting 5 15.6
2020-Aug-08 16:02 155 2 gusting 5 15.6